Location: Apeadero de Los Molinos-Guadarrama
(40.7091°N, 4.0689°W)
Time: 00:06:28
(UTC+00:00)

ISS - Pass Details

Date: 26 September 2021
Orbit: 417 x 423 km, 51.6° (Epoch: 24 October)

Event Time Altitude Azimuth Distance (km) Brightness Sun altitude
Rises 18:55:11 0° 298° (WNW) 2,362 1.5 -10.0°
Reaches altitude 10° 18:58:13 10° 328° (NNW) 1,500 -0.4 -10.6°
Maximum altitude 18:59:52 13° 357° (N) 1,333 -1.1 -10.9°
Drops below altitude 10° 19:01:31 10° 26° (NNE) 1,502 -1.1 -11.2°
Enters shadow 19:02:51 - 43° (NE) 1,827 -0.9 -11.5°
